EW3230 Weather Reports


time (UTC)temp
C
wind
direction
speed
KPH
gust
KPH
rain 1hr
cm
rain 24hr
cm
rain mn
cm
humidity
%
barometer
mb
20260901005656 20 155 0.0 0.0 0.00 0.36 0.08 73 1019.3
20260901004657 20 155 0.0 0.0 0.00 0.36 0.08 74 1019.2
20260901003656 20 155 0.0 1.6 0.00 0.36 0.08 74 1019.2
20260901002656 20 155 0.0 1.6 0.00 0.36 0.08 75 1019.2
20260901001655 20 155 0.0 0.0 0.00 0.36 0.08 75 1019.4
20260901001157 20 155 0.0 0.0 0.00 0.36 0.08 75 1019.4
20260831235651 20 155 0.0 0.0 0.00 0.36 0.08 75 1019.3
20260831234649 20 155 0.0 0.0 0.00 0.36 0.08 75 1019.4
20260831233702 20 155 0.0 0.0 0.00 0.36 0.08 75 1019.2
20260831233651 20 155 0.0 1.6 0.00 0.36 0.08 75 1019.3
20260831231650 21 155 0.0 1.6 0.00 0.36 0.08 75 1019.2
20260831230651 21 155 0.0 1.6 0.00 0.36 0.08 75 1019.3
20260831225649 21 155 0.0 1.6 0.00 0.36 0.08 75 1019.3
20260831224651 21 160 0.0 1.6 0.00 0.36 0.08 75 1019.3
20260831223650 21 150 0.0 1.6 0.00 0.36 0.08 75 1019.4
20260831222646 21 160 0.0 1.6 0.00 0.36 0.08 75 1019.4
20260831221644 22 163 0.0 1.6 0.00 0.36 0.08 74 1019.4
20260831220643 22 163 0.0 1.6 0.00 0.36 0.08 74 1019.5
20260831215644 22 166 0.0 1.6 0.00 0.36 0.08 73 1019.4
20260831214645 22 181 0.0 1.6 0.00 0.36 0.08 69 1019.4
20260831213644 23 195 0.0 1.6 0.00 0.36 0.08 67 1019.5
20260831212646 23 195 0.0 1.6 0.00 0.36 0.08 67 1019.4
20260831211643 23 162 0.0 1.6 0.00 0.36 0.08 66 1019.4
20260831210643 23 129 0.0 1.6 0.00 0.36 0.08 65 1019.3
20260831205638 24 136 0.0 1.6 0.00 0.36 0.08 62 1019.3
20260831204639 24 133 0.0 1.6 0.00 0.36 0.08 62 1019.3
20260831203637 23 136 0.0 1.6 0.00 0.36 0.08 61 1019.4
20260831202640 23 128 0.0 1.6 0.00 0.36 0.08 62 1019.4
20260831201638 24 112 0.0 1.6 0.00 0.36 0.08 62 1019.2
20260831200637 24 134 0.0 1.6 0.00 0.36 0.08 61 1019.2
20260831200140 24 183 0.0 8.0 0.00 0.36 0.08 61 1019.5
20260831195754 23 33 0.0 8.0 0.00 0.36 0.08 65 1019.4
20260831193638 23 67 1.6 8.0 0.00 0.36 0.08 66 1019.5
20260831192632 23 103 0.0 1.6 0.00 0.36 0.08 64 1019.5
20260831191631 23 113 0.0 6.4 0.00 0.36 0.08 65 1019.8
20260831190632 23 33 1.6 8.0 0.00 0.36 0.08 64 1019.8
20260831185633 23 108 0.0 1.6 0.00 0.36 0.08 64 1019.9
20260831184633 23 219 1.6 8.0 0.00 0.36 0.08 66 1020.1
20260831184136 23 70 0.0 8.0 0.00 0.36 0.08 66 1020.0
20260831182633 23 134 1.6 8.0 0.00 0.36 0.08 67 1019.9
20260831181634 23 57 1.6 6.4 0.00 0.36 0.08 67 1020.0
20260831180630 23 358 0.0 4.8 0.00 0.36 0.08 68 1020.2
20260831180129 23 71 1.6 8.0 0.00 0.36 0.08 67 1020.3
20260831174627 23 108 0.0 4.8 0.00 0.36 0.08 67 1020.4
20260831173628 23 102 1.6 8.0 0.00 0.36 0.08 66 1020.3
20260831172627 23 79 0.0 4.8 0.00 0.36 0.08 65 1020.3
20260831171626 23 79 1.6 9.7 0.00 0.36 0.08 64 1020.3
20260831171128 23 238 1.6 8.0 0.00 0.36 0.08 62 1020.4
20260831165627 23 92 1.6 11.3 0.00 0.36 0.08 64 1020.4
20260831164625 23 65 0.0 9.7 0.00 0.36 0.08 64 1020.6
20260831163626 23 31 0.0 4.8 0.00 0.36 0.08 65 1020.6
20260831162623 23 242 1.6 8.0 0.00 0.36 0.08 66 1020.6
20260831161625 23 78 1.6 9.7 0.00 0.36 0.08 65 1020.6
20260831160624 22 330 1.6 8.0 0.00 0.36 0.08 66 1020.6
20260831160125 22 79 1.6 8.0 0.00 0.36 0.08 67 1020.8
20260831155123 22 77 1.6 6.4 0.00 0.36 0.08 68 1021.0
20260831153622 22 76 1.6 9.7 0.00 0.36 0.08 68 1021.1
20260831152619 22 78 1.6 9.7 0.00 0.36 0.08 66 1021.2
20260831151620 21 162 3.2 9.7 0.00 0.36 0.08 70 1021.0
20260831150619 22 84 1.6 6.4 0.00 0.36 0.08 70 1021.0
20260831145619 21 51 1.6 6.4 0.00 0.36 0.08 68 1021.0
20260831144617 21 82 1.6 8.0 0.00 0.36 0.08 69 1021.0
20260831143616 21 80 1.6 9.7 0.00 0.36 0.08 71 1021.0
20260831142615 21 246 1.6 8.0 0.00 0.36 0.08 72 1020.9
20260831141617 21 338 1.6 6.4 0.00 0.36 0.08 72 1020.8
20260831140615 21 304 1.6 9.7 0.00 0.36 0.08 74 1020.8
20260831135616 21 90 1.6 11.3 0.00 0.36 0.08 75 1020.5
20260831134616 20 113 1.6 9.7 0.00 0.36 0.08 75 1020.6
20260831133616 20 84 3.2 11.3 0.00 0.36 0.08 75 1020.6
20260831131631 20 65 3.2 9.7 0.00 0.36 0.08 74 1020.5
20260831130616 20 73 1.6 9.7 0.00 0.36 0.08 73 1020.5
20260831125616 20 82 1.6 6.4 0.00 0.36 0.08 71 1020.6
20260831124616 19 68 1.6 9.7 0.00 0.36 0.08 70 1020.5
20260831123616 19 110 0.0 6.4 0.00 0.36 0.08 65 1020.4
20260831122616 18 82 1.6 8.0 0.00 0.36 0.08 61 1020.3
20260831121616 18 70 1.6 8.0 0.00 0.36 0.08 59 1020.2
20260831120617 18 103 0.0 4.8 0.00 0.36 0.08 59 1020.2
20260831115617 18 105 0.0 1.6 0.00 0.36 0.08 59 1020.2
20260831114615 18 96 0.0 1.6 0.00 0.36 0.08 59 1020.1
20260831113617 17 84 0.0 3.2 0.00 0.36 0.08 59 1020.0
20260831112616 17 228 0.0 1.6 0.00 0.36 0.08 59 1020.0
20260831111617 17 89 0.0 1.6 0.00 0.36 0.08 60 1019.9
20260831110617 17 70 0.0 0.0 0.00 0.36 0.08 60 1019.7
20260831105618 17 69 0.0 0.0 0.00 0.36 0.08 60 1019.7
20260831104617 17 69 0.0 0.0 0.00 0.36 0.08 60 1019.7
20260831103618 17 70 0.0 0.0 0.00 0.36 0.08 60 1019.6
20260831102615 17 70 0.0 0.0 0.00 0.36 0.08 60 1019.4
20260831101618 17 70 0.0 0.0 0.00 0.36 0.08 60 1019.2
20260831100615 17 69 0.0 1.6 0.00 0.36 0.08 60 1019.1
20260831095615 17 89 0.0 1.6 0.00 0.36 0.08 60 1018.9
20260831095117 17 221 0.0 0.0 0.00 0.36 0.08 60 1018.7
20260831093616 17 233 0.0 0.0 0.00 0.36 0.08 60 1018.7
20260831092616 17 233 0.0 0.0 0.00 0.36 0.08 59 1018.7
20260831091617 18 233 0.0 0.0 0.00 0.36 0.08 59 1018.6
20260831090615 18 233 0.0 0.0 0.00 0.36 0.08 59 1018.5
20260831085616 18 233 0.0 0.0 0.00 0.36 0.08 59 1018.5
20260831084616 18 233 0.0 0.0 0.00 0.36 0.08 59 1018.3
20260831083617 18 233 0.0 0.0 0.00 0.36 0.08 59 1018.3
20260831082616 18 233 0.0 0.0 0.00 0.36 0.08 59 1018.2
20260831081619 18 233 0.0 0.0 0.00 0.36 0.08 59 1018.1
20260831080620 18 233 0.0 0.0 0.00 0.36 0.08 59 1018.1
20260831075616 18 233 0.0 0.0 0.00 0.36 0.08 59 1018.0
20260831074617 18 233 0.0 1.6 0.00 0.36 0.08 59 1017.9
20260831073617 18 225 0.0 0.0 0.00 0.36 0.08 59 1017.8
20260831072615 18 122 0.0 0.0 0.00 0.36 0.08 59 1017.7
20260831071616 19 121 0.0 0.0 0.00 0.36 0.08 59 1017.6
20260831070616 19 122 0.0 0.0 0.00 0.36 0.08 59 1017.6
20260831065616 19 122 0.0 0.0 0.00 0.36 0.08 59 1017.5
20260831065116 19 121 0.0 0.0 0.00 0.36 0.08 59 1017.6
20260831063615 19 121 0.0 0.0 0.00 0.36 0.08 59 1017.5
20260831062617 19 122 0.0 0.0 0.00 0.36 0.08 59 1017.4
20260831061617 20 121 0.0 0.0 0.00 0.36 0.08 59 1017.5
20260831060616 20 121 0.0 0.0 0.03 0.36 0.08 58 1017.4
20260831055628 20 121 0.0 1.6 0.08 0.36 0.08 58 1017.3
20260831055119 20 121 0.0 0.0 0.08 0.36 0.08 58 1017.4
20260831053616 20 122 0.0 0.0 0.08 0.36 0.08 58 1017.3
20260831052617 20 122 0.0 0.0 0.08 0.36 0.08 58 1017.2
20260831051616 20 121 0.0 1.6 0.08 0.36 0.08 58 1017.3
20260831050618 20 245 0.0 0.0 0.05 0.33 0.05 58 1017.4
20260831045616 20 245 0.0 1.6 0.00 0.28 0.00 58 1017.4
20260831044615 20 245 0.0 1.6 0.03 0.28 0.00 58 1017.5
20260831043617 20 245 0.0 0.0 0.05 0.28 0.00 58 1017.5
20260831042615 20 245 0.0 0.0 0.18 0.28 0.00 59 1017.4
20260831041618 20 245 0.0 0.0 0.18 0.28 0.00 59 1017.4
20260831041130 20 262 0.0 0.0 0.20 0.28 0.00 59 1017.5
20260831035614 20 262 0.0 0.0 0.23 0.28 0.28 59 1017.4
20260831034615 20 262 0.0 0.0 0.23 0.25 0.25 59 1017.5
20260831034117 20 262 0.0 0.0 0.20 0.23 0.23 60 1017.5
20260831032615 20 262 0.0 1.6 0.08 0.10 0.10 60 1017.6
20260831031616 20 229 0.0 1.6 0.08 0.10 0.10 60 1017.6
20260831030613 20 229 0.0 1.6 0.08 0.08 0.08 61 1017.7
20260831025614 20 255 0.0 1.6 0.05 0.05 0.05 62 1017.8
20260831024615 21 262 0.0 1.6 0.03 0.03 0.03 63 1017.8
20260831023614 21 264 0.0 1.6 0.03 0.03 0.03 63 1017.7
20260831022614 21 236 0.0 1.6 0.03 0.03 0.03 64 1017.5
20260831021615 21 247 0.0 1.6 0.03 0.03 0.03 65 1017.6
20260831021117 21 248 0.0 3.2 0.00 0.00 0.00 67 1017.8
20260831020114 21 224 0.0 1.6 0.00 0.00 0.00 67 1017.8
20260831015117 21 212 0.0 1.6 0.00 0.00 0.00 67 1017.5
20260831013614 21 210 0.0 1.6 0.00 0.00 0.00 67 1017.7
20260831012613 21 232 0.0 1.6 0.00 0.00 0.00 66 1017.5
20260831011615 21 232 0.0 1.6 0.00 0.00 0.00 66 1017.6
20260831010613 21 270 0.0 1.6 0.00 0.00 0.00 66 1017.5